Content
SEND FEEDBACK

Daily
Averages
Monthly
Summary
United States of America

BELLE PLAINE, IOWA


Home > North America > United States > Iowa
Elevation: 844 feet     Latitude: 41 54N     Longitude: 092 16W

WEATHER
 
SELECT A DAY
Number of Records: 291,301;   Date Range: 6/5/02 - 12/19/14
 
SHARE

PRINT THIS DATA

[ ← Previous Day ]
WEATHER ALMANAC - FEBRUARY 13, 2013
[ Next Day → ]
[ °C ]   °F
Weather ElementAverageHighLow
Temperature32.7 °F40.6 °F (2:15 pm)22.6 °F (6:35 am)
Dewpoint25.5 °F30 °F (6:15 pm)20.1 °F (6:35 am)
Humidity75.6 %90 % (6:35 am)59 % (1:35 pm)
Barometer29.76 in29.85 in (12:35 am)29.64 in (10:35 pm)
Wind Speed6.5 mph12.7 mph (9:55 pm)
Weather ElementAverage
Visibility9.9 mi
Wind DirectionWSW (245.5 °)

Weather ElementTotal
Precipitation---
Heating Degree Days33.4 (Base 65)
Averaged from 71 records on February 13, 2013
WEATHER CONDITIONS BREAKOUT
WIND DIRECTION BREAKOUT
WEATHER BY HOUR - FEBRUARY 13, 2013
[ °C ]   °F
Local TimeTemperatureDewpointHumidityBarometerVisibilityWind DirectionWind SpeedGust SpeedPrecipitationEventsConditions
12:35 AM27.5 °F22.3 °F81 %29.85 in10.0 miSSW (210°)5.8 mphClear
12:55 AM27.5 °F21.9 °F80 %29.85 in10.0 miSSW (200°)3.5 mphClear
1:15 AM27.5 °F21.6 °F78 %29.84 in10.0 miSSW (210°)4.6 mphClear
1:35 AM27.5 °F22.1 °F80 %29.84 in10.0 miSSW (200°)3.5 mphClear
1:55 AM27.5 °F22.6 °F82 %29.84 in10.0 miCalmClear
2:15 AM27.5 °F21.9 °F80 %29.83 in10.0 miWest (260°)4.6 mphClear
2:35 AM27.5 °F22.1 °F80 %29.83 in10.0 miWest (280°)3.5 mphClear
2:55 AM27.5 °F22.8 °F83 %29.82 in10.0 miWest (280°)4.6 mphClear
3:15 AM27.5 °F23.0 °F83 %29.82 in10.0 miWNW (290°)3.5 mphClear
3:35 AM27.5 °F23.5 °F85 %29.81 in10.0 miWest (280°)4.6 mphClear
3:55 AM27.5 °F23.5 °F85 %29.81 in10.0 miWNW (300°)4.6 mphClear
4:15 AM27.5 °F23.9 °F86 %29.80 in10.0 miWNW (300°)3.5 mphClear
4:35 AM27.5 °F24.4 °F88 %29.80 in10.0 miCalmClear
4:55 AM25.2 °F21.9 °F87 %29.80 in10.0 miNW (310°)3.5 mphClear
5:15 AM25.2 °F22.1 °F88 %29.80 in7.0 miWNW (300°)4.6 mphClear
5:35 AM23.9 °F21.2 °F89 %29.80 in10.0 miWNW (300°)4.6 mphClear
5:55 AM24.8 °F22.1 °F89 %29.80 in10.0 miNW (310°)4.6 mphClear
6:15 AM23.7 °F21.0 °F89 %29.79 in10.0 miWNW (300°)5.8 mphClear
6:35 AM22.6 °F20.1 °F90 %29.79 in10.0 miNW (310°)6.9 mphClear
6:55 AM22.6 °F20.1 °F90 %29.79 in10.0 miWNW (300°)5.8 mphClear
7:15 AM22.6 °F20.1 °F90 %29.79 in10.0 miWNW (300°)5.8 mphClear
7:35 AM22.8 °F20.3 °F90 %29.79 in7.0 miWNW (300°)5.8 mphClear
7:55 AM25.2 °F22.5 °F89 %29.79 in10.0 miWNW (300°)5.8 mphClear
8:15 AM27.5 °F24.6 °F89 %29.79 in10.0 miWNW (300°)5.8 mphClear
8:35 AM27.5 °F23.9 °F86 %29.80 in10.0 miNW (320°)8.1 mphClear
8:55 AM27.5 °F23.0 °F83 %29.80 in10.0 miWNW (300°)9.2 mphClear
9:15 AM29.8 °F24.8 °F81 %29.79 in10.0 miNW (310°)5.8 mphClear
9:35 AM30.2 °F24.8 °F80 %29.79 in10.0 miWNW (300°)10.4 mphClear
9:55 AM30.2 °F24.1 °F78 %29.79 in10.0 miWNW (290°)9.2 mphClear
10:15 AM32.4 °F25.2 °F75 %29.79 in10.0 miWNW (300°)8.1 mphClear
10:35 AM32.4 °F25.5 °F76 %29.79 in10.0 miWNW (290°)6.9 mphClear
10:55 AM32.4 °F23.5 °F70 %29.79 in10.0 miWNW (300°)8.1 mphClear
11:15 AM34.9 °F25.5 °F69 %29.80 in10.0 miNW (310°)8.1 mphClear
11:35 AM34.9 °F25.0 °F67 %29.79 in10.0 miWNW (300°)9.2 mphClear
11:55 AM34.9 °F24.8 °F67 %29.79 in10.0 miWNW (290°)8.1 mphClear
12:15 PM36.3 °F26.2 °F67 %29.78 in10.0 miWest (270°)6.9 mphClear
12:35 PM37.4 °F26.8 °F66 %29.77 in10.0 miWSW (250°)6.9 mphClear
12:55 PM37.4 °F25.5 °F62 %29.76 in10.0 miWNW (290°)8.1 mphClear
1:15 PM39.9 °F27.1 °F60 %29.76 in10.0 miWSW (250°)9.2 mphClear
1:35 PM40.1 °F26.6 °F59 %29.75 in10.0 miWest (280°)9.2 mphClear
1:55 PM40.1 °F27.7 °F61 %29.75 in10.0 miWest (260°)11.5 mphClear
2:15 PM40.6 °F27.7 °F60 %29.75 in10.0 miWest (260°)8.1 mphClear
2:35 PM40.1 °F28.4 °F63 %29.75 in10.0 miWSW (250°)10.4 mphClear
2:55 PM40.1 °F28.2 °F63 %29.75 in10.0 miWSW (250°)8.1 mphClear
3:15 PM40.1 °F28.4 °F63 %29.75 in10.0 miWest (260°)6.9 mphClear
3:35 PM40.1 °F29.1 °F65 %29.75 in10.0 miWest (260°)5.8 mphClear
3:55 PM40.1 °F29.3 °F65 %29.74 in10.0 miWest (270°)5.8 mphClear
4:15 PM40.1 °F29.1 °F65 %29.74 in10.0 miWSW (250°)4.6 mphScattered Clouds
4:35 PM40.6 °F29.3 °F64 %29.74 in10.0 miWSW (250°)4.6 mphClear
4:55 PM40.1 °F29.3 °F65 %29.74 in10.0 miWSW (240°)5.8 mphClear
5:15 PM38.3 °F29.1 °F70 %29.73 in10.0 miWSW (240°)3.5 mphClear
5:35 PM37.4 °F29.1 °F72 %29.73 in10.0 miSSW (210°)4.6 mphClear
5:55 PM36.5 °F29.1 °F75 %29.73 in10.0 miSouth (180°)3.5 mphClear
6:15 PM37.4 °F30.0 °F75 %29.73 in10.0 miSouth (190°)4.6 mphClear
6:35 PM35.6 °F28.6 °F76 %29.72 in10.0 miSouth (180°)4.6 mphScattered Clouds
6:55 PM35.6 °F28.4 °F75 %29.72 in10.0 miSouth (170°)4.6 mphScattered Clouds
7:15 PM34.9 °F28.8 °F78 %29.72 in10.0 miSouth (170°)5.8 mphClear
7:35 PM34.9 °F28.8 °F78 %29.71 in10.0 miSouth (170°)5.8 mphClear
7:55 PM34.9 °F28.4 °F77 %29.70 in10.0 miSouth (170°)6.9 mphClear
8:15 PM34.9 °F28.4 °F77 %29.70 in10.0 miSouth (180°)6.9 mphClear
8:35 PM34.9 °F28.4 °F77 %29.69 in10.0 miSouth (170°)6.9 mphClear
8:55 PM34.9 °F28.2 °F77 %29.68 in10.0 miSouth (180°)6.9 mphClear
9:15 PM34.9 °F27.5 °F74 %29.68 in10.0 miSouth (190°)6.9 mphMostly Cloudy
9:35 PM37.4 °F28.4 °F70 %29.67 in10.0 miSSW (200°)11.5 mphMostly Cloudy
9:55 PM37.4 °F27.9 °F68 %29.66 in10.0 miSSW (200°)12.7 mphScattered Clouds
10:15 PM37.4 °F28.2 °F69 %29.65 in10.0 miSouth (190°)10.4 mphScattered Clouds
10:35 PM37.4 °F28.2 °F69 %29.64 in10.0 miSSW (200°)9.2 mphScattered Clouds
10:55 PM35.1 °F27.0 °F72 %29.64 in10.0 miSSW (210°)6.9 mphScattered Clouds
11:15 PM34.9 °F26.6 °F72 %29.64 in10.0 miSW (220°)10.4 mphScattered Clouds
11:35 PM36.1 °F27.0 °F69 %29.64 in10.0 miSW (230°)9.2 mphClear
11:55 PM37.4 °F27.5 °F67 %29.64 in10.0 miWSW (240°)11.5 mphClear
Hourly data recorded from KVTI, located miles away from Belle Plaine, Iowa







STORIES FROM OUR PARTNERS